Muncie, IN

4:58 PM EDT on August 22, 2017 (GMT -0400)
Delaware County-Johnson

Weather History for KMIE - November, 2011

Change the Weather History Date:

Thursday, November 17, 2011

  Actual Average Record
Temperature  
Mean Temperature 33 °F 42 °F  
Max Temperature 38 °F 51 °F 74 °F (2016)
Min Temperature 28 °F 34 °F 14 °F (2014)
Degree Days  
Heating Degree Days 32 23  
Month to date heating degree days 270 331  
Since 1 July heating degree days 782 795  
Cooling Degree Days 0 0  
Month to date cooling degree days 0 0  
Year to date cooling degree days 1068 955  
Moisture  
Dew Point 17 °F    
Average Humidity 52    
Maximum Humidity 69    
Minimum Humidity 35    
Precipitation  
Precipitation 0.00 in 0.12 in 1.77 in (1993)
Month to date precipitation 3.35 1.91  
Year to date precipitation 40.95 35.70  
Sea Level Pressure  
Sea Level Pressure 30.22 in    
Wind  
Wind Speed 12 mph (West)    
Max Wind Speed 29 mph    
Max Gust Speed 37 mph    
Visibility 10 miles    
Events Snow    
T = Trace of Precipitation, MM = Missing Value Source: NWS Daily Summary

Daily Weather History Graph

Daily Weather History Graph

Search for Another Location

Airport or City:

Trip Planner

Search our weather history database for the weather conditions in past years. The results will help you decide how hot, cold, wet, or windy it might be!

Date:

Astronomy

Nov. 17, 2011 Rise Set
Actual Time 7:29 AM EST 5:23 PM EST
Civil Twilight 7:00 AM EST 5:52 PM EST
Nautical Twilight 6:27 AM EST 6:25 PM EST
Astronomical Twilight 5:54 AM EST 6:57 PM EST
Moon 11:43 PM EST (11/17) 12:37 PM EST (11/17)
Length of Visible Light 10h 52m
Length of Day
9h 54m
Waning Gibbous, 60% of the Moon is Illuminated
Nov 17
Waning Gibbous
Nov 18
Last Quarter
Nov 25
New
Dec 2
First Quarter
Dec 10
Full

Hourly Weather History & Observations

Time (EST) Temp. Windchill Dew Point Humidity Pressure Visibility Wind Dir Wind Speed Gust Speed Precip Events Conditions
12:53 AM 35.1 °F 29.3 °F 23.0 °F 61% 30.14 in 10.0 mi West 6.9 mph - N/A   Mostly Cloudy
1:53 AM 35.1 °F 28.6 °F 19.9 °F 54% 30.14 in 10.0 mi WNW 8.1 mph - N/A   Overcast
3:53 AM 34.0 °F 26.6 °F 18.0 °F 52% 30.15 in 10.0 mi West 9.2 mph - N/A   Overcast
4:53 AM 33.1 °F 26.1 °F 18.0 °F 54% 30.16 in 9.0 mi West 8.1 mph - 0.00 in Snow Light Snow
5:53 AM 32.0 °F 26.4 °F 19.9 °F 61% 30.16 in 10.0 mi West 5.8 mph - 0.00 in   Scattered Clouds
6:53 AM 32.0 °F 26.4 °F 19.0 °F 59% 30.16 in 9.0 mi WSW 5.8 mph - 0.00 in Snow Light Snow
7:53 AM 30.9 °F 22.8 °F 18.0 °F 59% 30.18 in 9.0 mi West 9.2 mph - 0.00 in Snow Light Snow
8:53 AM 32.0 °F 24.2 °F 19.0 °F 59% 30.19 in 9.0 mi West 9.2 mph - 0.00 in Snow Light Snow
9:53 AM 34.0 °F 24.2 °F 18.0 °F 52% 30.19 in 10.0 mi WNW 15.0 mph - 0.00 in   Clear
10:53 AM 35.1 °F 23.5 °F 16.0 °F 46% 30.21 in 9.0 mi West 21.9 mph 28.8 mph 0.00 in Snow Light Snow
12:53 PM 36.0 °F 25.6 °F 14.0 °F 41% 30.19 in 10.0 mi West 18.4 mph 28.8 mph 0.00 in Snow Light Snow
1:53 PM 37.0 °F 25.9 °F 12.9 °F 37% 30.19 in 9.0 mi West 23.0 mph 31.1 mph 0.00 in Snow Light Snow
2:53 PM 37.0 °F 25.9 °F 12.0 °F 36% 30.19 in 10.0 mi West 23.0 mph 28.8 mph 0.00 in   Clear
3:53 PM 36.0 °F 24.4 °F 12.9 °F 39% 30.21 in 10.0 mi WNW 23.0 mph 33.4 mph 0.00 in   Clear
4:53 PM 35.1 °F 24.5 °F 12.9 °F 40% 30.24 in 10.0 mi WNW 18.4 mph 25.3 mph N/A   Clear
5:53 PM 33.1 °F 24.9 °F 14.0 °F 46% 30.26 in 10.0 mi WNW 10.4 mph - N/A   Clear
6:53 PM 30.9 °F 24.3 °F 16.0 °F 54% 30.28 in 10.0 mi West 6.9 mph - N/A   Clear
7:53 PM 30.0 °F 25.2 °F 16.0 °F 56% 30.29 in 10.0 mi SW 4.6 mph - N/A   Clear
8:53 PM 30.0 °F 24.1 °F 16.0 °F 56% 30.30 in 10.0 mi SW 5.8 mph - N/A   Clear
9:53 PM 30.0 °F 24.1 °F 16.0 °F 56% 30.31 in 10.0 mi SW 5.8 mph - N/A   Clear
10:53 PM 28.9 °F 23.9 °F 16.0 °F 58% 30.31 in 10.0 mi South 4.6 mph - N/A   Clear
11:53 PM 28.0 °F 22.8 °F 16.0 °F 61% 30.30 in 10.0 mi SSW 4.6 mph - N/A   Clear